Theta_e
295 294 293 292 291 291 290 290 290 290 290 290 290 289 288 287 287 287 286 286 286 285 285 285 285 284 284 284 284 284 284 284 283 283 283 283 283 283 282 283 282 282 283 284 283 283 284 283 283 284 283 283 283 283 283 283 283 282 282 282 282 283 282
293 292 291 291 290 290 289 289 289 290 290 290 289 288 287 287 286 286 286 285 285 285 284 284 284 284 284 283 283 283 283 283 283 283 283 282 282 282 282 282 282 282 282 283 283 283 283 283 283 283 283 283 283 283 283 283 283 282 282 282 282 282 281
292 291 290 289 289 289 288 289 289 289 289 289 288 287 286 286 285 285 285 284 284 284 284 284 284 283 283 283 283 283 283 282 282 282 282 282 282 282 282 282 281 281 281 281 282 282 282 282 282 282 282 282 282 282 282 283 282 282 282 281 281 281 281
291 290 289 289 288 288 288 288 289 289 289 288 287 286 285 285 284 284 284 284 284 284 283 283 283 283 283 283 283 283 282 282 282 282 282 282 282 282 282 281 281 281 280 280 281 281 281 281 281 281 281 281 282 282 282 282 282 281 281 281 281 281 280
290 289 288 288 287 287 287 288 289 289 288 287 286 285 284 284 284 283 283 283 283 283 283 283 283 283 283 283 282 282 282 282 282 282 281 281 281 281 281 281 280 280 280 279 280 280 280 280 280 280 280 280 281 281 281 281 281 281 280 280 280 280 279
289 288 288 287 287 287 288 289 289 288 287 286 285 284 284 284 283 283 283 283 283 283 283 282 282 282 282 282 282 282 282 281 281 281 281 281 281 280 280 280 280 279 279 279 279 279 279 279 279 279 279 279 279 279 279 280 280 280 279 279 279 279 279
288 287 287 287 287 288 288 289 289 288 286 285 284 284 283 283 283 283 283 283 282 282 282 282 282 282 282 282 282 282 281 281 281 280 280 280 280 280 280 279 279 279 279 279 279 279 279 278 278 278 278 278 278 278 278 278 278 278 278 278 278 278 278
287 287 287 287 288 289 289 289 288 287 285 284 284 283 283 283 283 283 283 282 282 282 282 282 282 282 282 282 281 281 281 281 281 280 280 280 280 279 279 279 279 279 279 279 279 278 278 277 277 277 277 277 277 277 277 277 277 277 277 277 276 276 276
287 287 288 288 289 289 289 288 287 285 284 283 283 283 283 283 283 283 283 282 282 282 282 282 282 282 281 281 281 281 281 280 280 280 279 279 279 279 279 278 278 278 278 278 278 277 277 276 277 277 276 276 276 276 276 276 276 276 276 275 275 275 275
288 288 289 289 289 289 288 287 286 284 283 283 283 283 283 283 283 283 282 282 282 282 282 282 281 281 281 281 280 280 280 280 279 279 279 279 278 278 278 278 278 277 277 277 277 276 276 276 276 276 276 276 276 275 275 275 275 275 275 274 274 275 275
289 289 289 288 288 288 287 286 284 283 283 283 283 283 283 283 282 282 282 282 282 282 281 281 281 281 281 280 280 280 279 279 279 278 278 278 278 277 277 277 277 277 276 276 276 276 275 276 276 276 275 275 275 275 274 274 274 274 274 273 273 273 274
288 288 288 288 287 287 285 284 283 283 283 283 283 283 283 283 282 282 282 282 281 281 281 281 281 281 280 280 280 279 279 278 278 278 278 277 277 277 276 276 276 276 275 275 275 275 275 275 275 275 275 275 274 274 274 274 274 273 272 272 271 272 272
288 287 287 287 286 285 284 283 283 283 283 283 283 283 282 282 282 282 282 281 281 281 281 280 280 280 280 279 279 278 278 278 277 277 277 277 276 276 276 275 275 275 275 274 274 275 275 275 274 274 275 274 274 274 273 273 273 272 271 271 271 271 271
287 287 286 285 284 283 283 283 283 282 282 282 282 282 282 282 282 281 281 281 281 280 280 280 280 279 279 278 278 277 277 277 277 276 276 276 276 276 275 275 275 275 274 274 274 274 274 274 274 274 274 274 273 273 273 272 272 271 270 271 271 271 271
286 285 284 284 283 283 282 282 282 282 282 282 282 282 281 281 281 281 281 280 280 280 280 279 279 278 278 277 277 277 277 276 276 276 276 276 276 275 275 275 275 275 274 274 274 274 274 274 274 273 273 273 273 272 272 271 271 270 270 270 270 270 271
284 284 283 283 282 282 282 282 282 282 282 281 281 281 281 281 281 280 280 280 280 279 279 279 278 278 277 277 277 276 276 276 276 276 276 275 275 275 275 275 275 275 274 274 274 274 274 274 273 273 273 273 272 271 270 270 269 269 269 269 268 269 270
283 282 282 282 282 282 282 282 282 281 281 281 281 280 280 280 280 280 280 280 279 279 279 278 278 278 277 277 276 276 276 275 275 275 275 275 275 275 275 275 274 274 274 274 273 273 273 273 273 273 272 272 271 270 269 269 269 269 269 268 268 269 270
282 282 282 282 282 282 281 281 281 281 280 280 280 280 280 280 280 280 280 279 279 279 279 278 278 277 277 276 276 276 275 275 275 274 274 274 274 274 274 274 274 273 273 273 273 273 273 273 273 273 272 272 271 271 270 269 269 269 269 268 268 269 269
282 282 281 281 281 281 281 280 280 280 280 280 280 279 279 279 279 279 279 279 279 279 278 278 277 277 276 276 276 275 275 275 274 274 274 273 273 274 274 274 273 273 273 273 273 273 273 273 273 273 272 272 272 271 270 269 269 269 268 268 268 268 268
282 281 281 281 280 280 280 280 280 279 279 279 279 279 279 279 279 279 279 279 279 278 278 277 277 276 276 276 276 275 275 274 274 273 273 273 273 273 273 273 272 272 273 273 273 273 273 273 273 272 272 272 271 271 270 270 269 269 268 268 268 267 267
281 280 280 280 279 279 279 279 279 279 279 279 279 279 279 278 278 278 278 278 278 277 277 276 276 276 275 275 275 275 274 274 273 273 273 273 273 273 272 272 272 272 272 272 272 273 272 272 272 272 272 271 271 271 270 269 269 269 268 268 267 267 267
280 279 279 279 279 279 279 279 279 279 278 278 278 278 278 278 278 278 278 277 277 277 276 276 276 275 275 275 274 274 274 273 273 273 273 273 272 272 272 271 272 272 272 272 272 272 272 272 271 271 271 270 270 270 269 269 268 268 267 267 267 267 267
279 279 279 279 279 279 279 279 278 278 278 278 278 278 278 278 277 277 276 276 276 276 276 276 275 275 274 274 274 273 273 273 273 273 273 273 272 272 272 271 271 272 271 271 271 271 271 271 270 270 270 270 270 269 268 268 267 267 266 266 267 267 266
279 279 279 279 279 278 278 278 278 278 278 278 277 277 277 276 276 276 275 275 276 275 275 275 274 274 274 273 273 273 273 273 273 273 273 273 272 272 272 271 271 271 271 270 270 270 270 270 270 270 270 270 269 268 268 267 267 266 266 266 266 266 266
279 279 278 278 278 278 278 278 278 277 277 277 277 276 275 275 275 275 275 275 275 274 274 274 274 273 273 273 273 273 273 273 273 273 272 272 272 271 271 271 271 270 270 270 270 269 269 269 269 269 269 269 268 267 267 267 266 266 266 266 266 265 266
278 278 278 278 277 277 278 278 278 278 277 276 276 275 275 274 274 274 274 274 274 274 273 273 273 273 273 273 273 273 273 273 272 272 272 271 271 271 271 270 270 270 269 269 269 269 269 269 269 269 268 268 267 267 267 266 266 266 266 266 266 265 266
278 277 277 277 277 277 277 277 277 277 276 276 275 275 275 274 274 274 274 273 273 273 273 273 273 273 273 273 273 273 273 272 272 272 271 271 271 270 270 270 269 269 269 269 269 268 268 268 268 268 267 267 266 266 266 266 265 265 266 266 265 265 266
277 277 277 277 277 277 277 277 276 276 276 275 275 275 274 274 274 273 273 273 273 273 272 273 273 273 273 273 273 272 272 272 272 271 271 271 270 270 270 269 269 269 268 268 268 268 267 267 267 267 266 266 265 265 265 265 265 265 265 265 265 265 265
277 276 276 277 277 277 276 276 275 275 274 274 274 274 273 273 273 273 272 272 272 271 271 272 272 272 272 272 272 272 271 271 271 271 270 270 270 270 269 268 268 267 267 267 267 267 267 266 266 266 266 265 265 265 265 265 265 265 265 265 264 265 265
276 276 276 276 276 276 275 275 274 274 273 273 273 272 272 272 272 271 271 271 271 271 271 271 271 272 272 271 271 271 271 270 270 270 269 269 269 268 268 267 266 266 266 266 266 265 266 265 265 265 265 265 265 265 265 265 265 265 265 264 264 264 265
276 276 276 276 276 275 275 274 274 273 273 272 272 272 271 271 271 271 271 271 270 270 271 271 271 271 271 271 270 270 270 269 269 269 268 268 267 267 266 266 265 265 265 265 265 265 265 265 264 264 264 264 265 265 265 265 265 264 264 264 264 264 264
275 275 275 275 275 275 274 274 273 273 272 272 272 271 271 271 271 271 271 270 270 270 271 271 271 271 271 270 270 269 269 269 268 268 267 267 266 266 266 265 265 265 265 264 264 264 264 264 264 264 264 264 264 264 264 264 264 264 264 264 264 264 264
275 275 275 274 274 274 274 273 273 272 272 272 271 271 271 271 271 271 271 270 270 270 271 270 270 270 270 269 269 269 268 268 268 267 267 266 266 266 266 266 265 265 264 264 264 264 264 264 264 263 263 264 264 263 264 264 264 264 264 263 263 263 263
275 275 274 274 274 274 273 273 273 272 272 271 271 271 271 271 271 271 271 270 270 270 270 270 270 269 269 269 269 269 268 268 268 267 267 267 267 266 266 266 265 265 265 264 264 264 263 263 263 263 263 263 263 263 263 263 263 263 263 263 263 263 263
275 274 274 274 274 274 273 273 272 272 272 271 271 271 271 270 271 271 271 271 270 270 270 269 269 269 269 269 269 269 268 268 268 267 267 267 267 266 266 266 265 265 265 265 264 264 264 263 263 263 263 263 262 262 262 263 263 263 263 263 263 263 263
274 274 274 274 274 273 273 272 272 272 271 271 271 271 270 270 271 271 271 270 270 270 269 269 269 270 270 269 269 269 269 268 267 267 267 267 266 266 266 266 265 265 265 264 264 264 264 263 263 263 263 262 262 262 262 263 263 263 263 263 263 263 263
Wind_Speed
23 22 21 21 20 19 18 16 15 14 12 10 9 7 6 5 4 3 3 3 3 3 2 2 2 3 3 4 4 5 5 5 6 7 8 9 9 10 12 13 14 18 20 17 16 20 20 21 24 25 24 27 28 27 28 29 30 31 32 33 34 35 35
24 23 23 22 21 19 18 16 14 13 11 9 8 6 5 4 4 4 4 3 3 3 2 3 3 3 4 4 5 5 6 6 7 8 9 9 10 11 12 15 16 18 21 21 19 20 21 22 24 26 25 27 29 30 30 31 31 32 33 34 35 36 36
24 24 23 22 20 18 17 15 13 11 10 8 6 5 5 4 4 4 4 3 3 3 2 3 3 3 4 4 5 6 6 7 8 9 10 10 11 12 13 14 16 18 21 23 22 21 23 24 25 27 27 27 29 31 32 33 33 34 35 36 36 36 36
25 23 22 20 19 17 15 14 12 10 9 7 6 5 5 5 4 4 4 3 3 3 2 3 3 3 4 5 6 6 7 8 9 10 11 12 13 14 15 15 17 19 21 24 26 25 25 27 28 28 28 29 31 32 33 35 36 37 37 37 37 38 38
24 22 21 19 17 16 14 12 10 8 7 6 5 5 5 4 4 4 3 3 3 2 2 2 3 3 4 6 7 7 8 9 10 11 12 13 14 15 17 17 18 20 22 24 27 28 27 28 29 30 30 30 32 34 35 36 37 38 38 39 39 39 39
24 22 20 18 16 14 12 10 9 8 6 6 5 5 4 4 4 3 3 2 2 2 2 3 3 4 5 7 8 9 10 11 12 13 14 14 16 16 17 18 19 21 22 24 27 29 29 29 29 30 31 30 31 34 36 38 39 39 38 39 40 40 39
23 21 19 17 15 13 11 10 8 7 6 6 5 5 4 4 4 3 2 2 2 2 3 3 5 6 7 8 9 10 11 12 13 14 15 16 17 17 19 19 20 22 23 25 27 29 30 30 30 30 31 30 31 32 34 35 39 41 40 39 40 41 41
22 20 18 16 14 12 10 9 8 7 6 6 6 5 5 4 3 3 2 2 3 3 4 5 6 7 9 10 11 12 13 14 15 15 16 18 19 19 20 21 22 23 24 26 28 29 29 30 30 29 30 31 31 33 34 34 36 40 41 40 40 40 40
20 18 16 15 13 12 10 9 8 7 7 7 6 6 4 3 3 2 2 3 4 5 6 7 8 9 11 12 13 14 15 16 17 18 18 19 20 21 22 23 23 24 26 27 28 29 28 29 30 30 30 32 32 33 35 35 35 38 39 39 40 39 37
19 17 16 14 13 12 10 9 8 8 8 7 6 5 4 3 3 3 4 5 6 7 8 9 10 11 12 13 14 15 17 17 18 19 20 20 21 22 22 23 24 25 26 27 28 28 28 30 32 31 31 33 33 33 34 35 36 37 39 39 41 42 38
19 17 16 14 13 12 10 9 9 9 8 7 5 4 3 3 3 4 5 6 7 9 10 10 12 13 13 14 15 16 17 18 19 20 21 22 22 23 23 24 25 26 26 27 28 29 29 31 33 33 32 33 33 33 34 35 36 37 39 39 40 42 41
19 17 16 14 13 11 10 10 9 9 8 6 5 4 4 4 5 6 7 8 9 10 11 12 13 14 15 16 17 18 18 19 20 21 22 22 22 23 23 24 25 26 27 27 28 30 31 32 33 34 33 32 33 34 35 35 36 36 37 38 37 39 41
18 17 15 14 12 11 11 10 9 9 7 6 5 5 5 5 6 7 8 9 10 11 12 13 14 15 17 17 18 19 20 20 21 22 22 22 23 23 23 23 24 25 27 28 29 32 33 32 32 34 34 32 32 34 35 35 36 36 35 37 37 38 39
17 16 14 13 12 11 11 10 9 8 7 6 5 5 6 6 7 8 10 10 11 13 14 14 15 16 17 18 19 20 21 22 23 24 24 25 25 25 25 25 25 26 27 28 29 32 34 32 31 33 34 32 31 33 34 35 36 35 35 37 38 38 38
16 15 13 12 12 11 10 9 8 7 6 6 6 6 7 8 8 9 11 12 13 14 15 15 16 17 17 18 20 21 23 24 25 26 27 28 28 28 28 28 28 28 29 30 30 32 33 32 32 32 33 32 31 32 33 34 35 35 35 37 39 38 38
15 14 13 12 12 11 10 9 8 7 7 6 7 7 8 9 10 11 12 13 14 15 15 16 17 18 19 20 21 22 24 25 27 29 29 30 30 30 30 30 29 30 31 31 32 33 33 34 34 34 34 34 32 31 32 33 35 35 35 36 37 38 38
14 13 12 12 11 10 10 9 8 8 8 8 8 9 10 11 12 13 14 14 15 16 17 18 19 20 20 21 22 23 25 27 29 30 31 31 32 32 32 31 30 30 31 31 32 33 33 34 34 34 34 32 30 29 29 30 34 35 33 34 36 38 39
13 13 12 12 11 10 9 9 9 9 9 9 9 10 11 12 13 15 16 16 17 18 19 19 20 21 21 22 22 24 26 27 29 31 31 32 33 34 33 31 30 31 32 32 32 33 34 35 35 35 36 35 33 31 28 28 32 32 29 31 34 35 37
13 12 12 11 11 10 10 10 9 9 10 10 11 12 13 14 15 16 17 18 19 20 21 21 22 22 23 24 24 25 26 27 29 30 31 32 33 34 33 31 31 33 33 34 35 35 36 37 38 38 39 39 37 34 30 28 28 27 26 29 32 31 32
12 12 11 11 11 10 10 10 10 10 11 12 13 14 15 16 17 18 19 20 21 22 22 23 24 25 26 27 27 28 28 29 30 30 31 32 33 34 33 32 33 34 35 36 37 38 39 40 40 40 40 39 37 35 32 28 26 25 24 26 28 28 28
12 12 12 12 11 11 10 10 11 12 13 14 15 15 16 17 18 20 21 22 22 23 24 25 25 26 28 29 30 31 31 32 32 32 33 33 34 34 34 34 36 37 37 38 40 41 42 42 41 41 39 38 36 34 31 28 27 25 24 24 26 25 26
12 12 12 12 11 11 11 11 12 13 14 15 16 17 18 19 20 22 23 23 24 25 26 27 28 29 29 30 32 32 32 33 33 33 34 34 34 35 36 37 38 39 40 41 42 42 42 41 40 39 37 36 35 32 29 27 26 26 26 27 27 25 25
13 13 12 12 12 12 12 13 14 14 15 16 17 18 20 21 21 22 24 25 26 27 28 29 30 30 30 31 32 33 33 33 33 34 35 35 35 37 37 39 40 41 42 42 42 42 42 40 38 36 36 35 33 31 27 24 24 25 26 28 29 27 27
13 13 13 13 13 13 14 14 14 15 16 17 19 20 21 22 22 23 25 27 28 29 30 30 31 31 32 32 33 33 33 34 35 35 36 36 37 38 38 40 41 41 41 41 41 40 39 38 36 35 35 34 32 29 26 24 24 25 26 28 30 29 29
14 14 14 14 14 14 14 15 15 16 17 19 20 21 21 22 23 24 27 29 30 30 31 31 32 32 33 33 33 34 34 35 35 36 37 37 37 37 38 38 39 39 38 38 38 37 37 36 34 33 33 33 30 27 25 24 25 26 27 28 30 31 31
14 14 14 14 14 15 15 16 17 18 19 19 20 20 21 23 24 26 28 30 31 31 32 33 33 34 34 34 34 35 35 36 36 36 36 36 35 36 36 36 36 35 35 35 35 35 35 34 32 32 32 30 29 27 26 25 26 27 27 28 29 31 31
14 14 14 14 14 15 16 18 19 20 21 21 22 23 24 26 27 28 30 31 31 32 33 34 34 35 35 36 36 37 37 37 36 36 35 34 33 33 32 32 31 31 32 32 32 32 32 31 29 30 30 28 27 27 27 26 26 28 28 28 29 30 30
14 14 14 15 15 17 18 19 20 21 23 24 25 26 28 30 31 32 33 33 34 35 36 37 37 37 38 38 39 39 39 38 37 36 34 32 31 30 29 28 28 28 28 29 29 29 29 28 27 28 29 27 27 28 28 27 28 29 30 30 29 30 31
14 15 15 16 17 18 19 19 20 22 24 26 27 28 30 32 33 33 34 34 35 37 38 39 40 40 40 40 40 40 39 37 36 34 33 31 30 28 27 27 26 27 27 26 26 26 27 27 27 28 28 27 28 29 29 29 29 30 30 29 29 30 30
15 16 17 17 17 18 19 20 21 22 24 26 28 30 31 32 32 33 34 34 36 38 39 41 41 42 41 41 40 39 38 37 35 34 32 31 29 28 28 28 27 27 27 26 26 27 27 26 27 28 27 27 28 29 28 28 28 28 28 27 28 29 29
16 17 18 18 18 19 20 21 23 24 26 27 29 30 31 32 33 33 35 36 37 40 41 42 42 42 41 40 39 39 37 35 34 33 31 30 29 28 27 28 28 28 28 27 27 28 28 28 27 28 28 28 28 28 27 27 26 27 27 27 28 29 29
17 17 18 19 20 21 22 23 24 26 28 29 30 30 31 32 34 35 36 37 39 41 43 43 42 42 40 39 38 37 35 34 33 32 31 29 29 28 27 27 28 28 28 28 29 29 29 29 29 28 28 28 27 27 27 27 27 27 27 28 28 29 30
18 18 20 21 22 23 25 25 26 28 29 30 30 31 32 33 35 36 37 38 39 41 42 41 41 40 38 37 36 35 33 33 32 32 31 30 29 30 29 28 27 27 28 29 30 30 30 30 30 30 29 29 28 28 28 28 28 28 27 28 29 30 30
20 21 22 23 24 25 27 28 28 28 29 30 31 32 33 34 36 37 37 37 39 40 40 39 38 37 36 35 34 34 33 33 33 32 31 31 30 30 30 29 29 29 29 29 29 29 30 31 31 31 31 30 30 30 29 29 29 28 28 29 29 30 30
22 23 24 26 27 27 28 29 29 29 30 31 32 33 33 34 36 37 37 37 37 38 37 36 36 35 35 34 34 34 34 34 34 33 32 31 31 30 30 30 30 30 29 29 28 29 29 29 30 30 30 30 30 30 31 31 30 29 29 29 29 29 29
25 26 27 28 29 29 29 29 30 31 32 33 33 33 32 34 36 37 36 36 36 35 34 34 35 35 35 35 34 34 34 33 33 33 32 31 30 30 30 30 30 30 29 28 28 28 28 28 28 28 29 29 29 29 29 30 29 29 29 30 30 30 29
Wind_Direction
188 186 183 180 178 175 171 169 168 169 173 177 179 179 177 177 184 198 208 209 213 219 233 252 267 276 282 287 291 296 299 300 300 303 306 307 310 310 308 310 309 306 309 315 315 313 316 316 315 317 320 319 319 321 320 320 321 321 319 318 318 318 317
186 182 179 177 174 171 169 169 169 171 174 178 179 176 178 187 197 207 211 214 223 229 238 255 267 278 286 292 297 302 304 305 306 307 309 310 310 311 311 311 311 309 309 312 315 314 314 315 314 315 318 318 318 319 318 318 319 319 318 318 318 318 318
184 180 177 174 171 170 169 169 169 170 172 174 175 177 184 192 195 204 211 216 226 231 240 258 267 277 287 295 300 304 306 306 307 307 309 310 309 310 311 309 309 309 308 311 315 318 317 317 316 317 319 319 319 318 318 318 319 319 318 318 317 317 318
182 178 174 172 171 170 168 168 168 170 172 173 177 181 184 188 192 202 211 218 230 236 246 259 267 278 288 295 300 304 307 307 307 310 310 311 312 312 312 312 312 313 313 314 317 320 320 319 319 319 321 321 320 318 319 320 320 319 317 316 317 317 316
177 175 172 171 171 170 168 169 170 173 175 173 174 177 179 187 195 203 212 219 232 244 256 265 276 289 296 301 305 308 311 311 312 314 314 314 315 315 315 317 316 316 316 316 317 319 319 319 319 319 321 323 322 320 320 320 319 317 316 316 316 315 314
174 172 172 172 172 172 172 174 176 176 173 170 171 176 182 193 200 206 215 223 232 254 275 286 295 302 304 308 311 311 313 313 313 314 314 314 315 315 315 316 316 315 315 315 315 317 317 319 320 321 323 326 324 321 321 320 318 316 316 315 314 312 311
173 171 172 173 173 175 178 181 182 178 173 173 175 180 187 194 200 204 211 225 248 270 287 298 304 309 311 311 312 312 312 312 311 312 313 312 314 314 314 314 315 314 315 315 315 316 317 319 320 322 324 323 322 321 320 319 316 315 314 314 312 311 312
174 173 174 175 177 182 185 186 183 176 172 174 175 181 187 189 198 213 230 258 279 290 298 307 311 314 315 314 313 313 312 312 312 313 313 313 314 315 315 315 315 315 316 316 315 315 317 317 318 321 322 321 320 319 318 317 315 313 313 313 311 311 313
177 178 179 182 185 188 189 185 179 172 171 175 176 180 186 195 214 241 270 286 297 304 309 315 318 318 318 317 317 316 314 314 313 313 314 314 314 315 315 315 315 316 316 315 314 315 316 316 317 320 320 318 319 318 316 314 312 310 310 310 309 309 311
182 184 186 189 191 191 188 181 176 174 174 178 181 186 198 222 252 275 293 302 307 313 317 320 319 319 318 317 317 315 313 313 312 312 312 312 312 314 315 316 316 316 316 314 313 314 315 316 317 319 318 317 317 316 313 312 311 310 310 310 309 309 311
187 188 189 190 191 190 185 178 175 177 180 185 191 205 225 254 278 291 302 308 311 314 316 316 316 315 314 313 312 310 309 309 309 310 311 312 314 316 316 316 316 315 315 314 313 314 315 315 316 317 316 316 315 314 311 311 310 309 309 309 308 308 309
189 189 189 189 190 187 182 179 181 185 191 198 208 227 249 270 285 293 300 304 307 310 312 313 314 313 313 312 311 309 309 309 309 309 310 311 313 313 314 314 314 314 315 313 312 313 313 314 314 313 313 313 312 310 309 308 307 306 306 306 305 304 306
189 189 188 187 185 184 181 183 188 193 200 209 222 243 262 279 289 297 301 304 308 311 312 313 314 313 312 312 310 309 309 308 308 308 308 309 309 310 311 311 312 313 312 311 311 310 309 311 310 308 309 311 309 307 307 305 304 303 302 301 301 301 303
189 188 186 183 183 186 187 189 194 200 211 224 240 258 275 287 294 299 304 306 309 311 312 312 311 311 310 310 310 309 308 308 308 308 308 309 309 310 310 310 310 310 307 307 306 305 305 306 306 304 306 307 305 302 302 300 299 300 300 300 300 302 304
188 186 184 183 186 190 193 198 204 213 227 242 258 270 280 289 295 299 303 305 307 308 309 309 309 310 310 310 309 309 308 309 309 309 309 309 308 309 308 308 309 307 304 303 301 299 300 301 301 301 302 302 301 299 299 299 300 301 302 302 302 304 305
186 185 185 186 190 195 201 209 216 228 242 252 264 275 283 289 295 299 301 304 305 306 307 308 309 309 308 308 309 308 309 309 308 307 306 306 306 306 306 307 307 305 302 301 299 298 299 301 301 302 302 303 303 301 300 300 299 299 300 299 299 299 301
185 186 187 191 196 202 211 222 229 238 250 258 268 279 286 292 297 299 300 302 303 305 307 307 307 307 307 309 309 309 308 306 305 304 304 304 304 303 303 305 305 302 299 298 298 298 298 299 300 300 300 299 296 293 291 289 290 293 294 291 289 291 295
188 190 193 198 205 210 218 230 238 246 256 266 275 284 289 294 297 299 301 303 303 305 306 305 305 306 306 307 306 305 303 302 302 302 302 302 302 301 302 305 303 298 296 295 295 295 295 296 296 297 298 297 295 293 290 285 285 290 288 281 280 284 290
193 196 200 206 213 219 226 235 245 254 264 273 281 287 291 295 298 300 301 302 303 304 305 305 307 307 305 304 302 300 300 299 298 299 299 299 299 299 302 303 299 296 296 296 295 296 297 298 299 300 300 300 299 298 296 291 288 287 281 276 278 280 283
199 202 207 213 220 225 232 240 250 261 271 278 284 288 291 295 298 298 299 301 302 305 306 307 306 305 304 303 302 301 301 300 299 299 298 298 298 299 302 301 298 298 298 298 298 298 299 299 299 299 298 298 298 297 297 296 292 288 281 277 278 278 277
205 209 213 218 224 230 239 249 258 267 274 280 284 288 292 295 297 298 300 303 304 305 305 305 304 304 304 304 304 304 303 302 301 300 300 300 301 302 303 301 300 300 300 299 298 298 297 297 296 295 295 295 296 297 298 298 295 292 288 285 283 283 283
211 215 219 223 230 238 246 255 262 268 274 280 285 290 293 296 298 300 301 303 303 303 304 304 304 304 304 303 302 301 300 300 300 300 301 302 303 303 303 302 300 300 298 296 296 294 293 293 293 293 294 295 296 298 298 297 294 292 290 289 288 289 291
216 221 226 232 238 244 250 257 264 271 278 284 289 292 295 297 299 300 300 301 302 303 303 303 303 302 300 299 298 298 299 299 300 301 301 302 302 301 300 298 296 294 294 293 292 291 291 292 293 294 295 295 296 297 295 291 287 284 282 284 287 288 291
223 229 234 239 244 248 254 261 269 277 284 288 291 293 295 297 298 299 300 301 302 302 302 300 300 298 297 297 298 299 300 300 300 301 300 299 297 296 294 292 291 291 290 289 289 289 290 292 292 293 293 293 294 295 292 286 280 276 275 278 282 285 288
230 235 239 243 247 252 258 265 272 280 284 287 289 291 294 296 299 300 300 300 300 301 300 299 298 298 297 298 299 299 299 298 297 297 295 294 293 291 290 289 288 288 287 287 288 289 289 290 291 291 291 292 292 290 286 281 277 273 273 275 278 281 286
235 239 242 247 254 261 269 275 278 280 282 284 287 291 294 296 298 299 299 299 299 299 298 297 297 297 298 298 297 296 295 295 295 294 293 292 291 290 288 287 286 286 286 285 285 285 285 287 289 290 289 288 288 285 283 280 277 275 276 278 280 282 286
239 243 247 254 261 269 274 277 279 282 286 290 295 298 299 300 300 300 299 299 299 298 297 297 297 297 297 297 297 296 296 297 297 295 294 292 290 287 286 285 285 285 284 283 283 283 284 285 286 285 285 284 283 282 282 281 278 277 281 285 286 286 289
244 250 255 261 266 270 274 280 286 291 296 299 300 301 301 302 302 302 302 302 301 300 299 299 298 298 298 298 297 298 298 298 297 295 293 292 289 288 288 288 287 285 283 283 285 286 286 286 285 283 282 280 277 277 279 279 277 277 282 286 287 286 288
249 254 259 265 269 275 281 288 293 297 299 301 301 302 302 302 302 302 302 301 301 299 298 297 297 297 297 296 297 297 297 297 297 297 296 295 294 295 296 295 291 288 287 288 289 288 288 288 285 283 281 278 274 275 276 276 275 276 280 282 282 282 285
254 258 263 269 274 281 287 290 293 295 297 299 299 299 299 299 298 298 297 296 295 294 293 293 294 294 294 295 296 297 298 299 299 299 298 299 299 299 299 297 292 290 291 292 291 290 290 288 285 283 281 279 277 278 279 278 277 278 280 280 279 280 284
257 262 269 276 281 285 288 290 293 295 295 295 294 294 294 294 294 293 293 293 292 291 290 291 292 293 295 296 296 296 298 299 300 299 298 299 298 297 295 292 289 288 289 289 289 289 288 286 284 283 282 281 281 281 282 281 280 279 278 278 278 279 283
261 268 275 281 284 286 288 290 291 292 291 290 290 290 290 291 291 291 291 291 289 288 289 290 291 293 295 295 295 296 298 299 298 297 297 296 295 294 291 287 285 285 285 283 284 285 284 282 281 281 281 281 281 281 280 280 278 277 276 276 276 277 280
269 275 278 281 284 286 288 290 289 289 289 289 289 290 290 290 290 289 288 287 285 286 288 289 290 292 294 295 295 297 298 298 296 296 296 295 293 293 291 288 284 282 279 277 278 279 279 278 279 279 279 279 279 278 278 277 277 276 275 274 274 275 277
273 276 278 280 283 286 289 290 290 290 290 290 291 291 291 290 289 287 286 285 285 286 288 290 291 293 295 296 297 298 298 298 297 296 295 294 293 291 290 287 283 280 278 278 277 275 274 274 275 275 276 276 276 276 275 275 275 274 273 272 273 275 277
277 280 283 285 288 290 291 293 293 293 293 293 293 293 292 290 288 288 287 287 286 288 290 292 294 296 297 297 298 298 297 296 295 295 293 292 291 289 287 285 282 281 281 281 279 277 275 273 272 272 272 272 272 272 271 272 272 273 273 274 275 277 278
282 285 288 290 292 294 294 294 294 295 295 294 294 293 291 289 288 289 289 288 288 290 293 294 294 296 297 297 296 295 293 292 292 292 291 290 289 287 285 284 283 283 283 282 281 280 279 275 272 271 271 270 271 270 270 270 270 271 272 273 275 276 278